| time (UTC) | temp F | wind direction | speed MPH | gust MPH | rain 1hr in | rain 24hr in | rain mn in | humidity % | barometer mb |
| 20260502233505 | 46 | 9 | 0.0 | 2.0 | 0.00 | 0.03 | 0.01 | 51 | 1017.3 |
| 20260502233024 | 46 | 348 | 0.0 | 2.0 | 0.00 | 0.03 | 0.01 | 51 | 1017.2 |
| 20260502232507 | 46 | 14 | 0.0 | 2.0 | 0.00 | 0.03 | 0.01 | 52 | 1017.3 |
| 20260502232009 | 46 | 352 | 0.0 | 2.0 | 0.00 | 0.03 | 0.01 | 50 | 1017.3 |
| 20260502231520 | 46 | 223 | 0.0 | 4.0 | 0.00 | 0.03 | 0.01 | 50 | 1017.3 |
| 20260502231008 | 46 | 5 | 0.0 | 4.0 | 0.00 | 0.03 | 0.01 | 49 | 1017.3 |
| 20260502230508 | 47 | 281 | 0.0 | 2.0 | 0.00 | 0.03 | 0.01 | 50 | 1017.3 |
| 20260502230031 | 47 | 346 | 0.0 | 4.0 | 0.00 | 0.03 | 0.01 | 50 | 1017.3 |
| 20260502225508 | 47 | 268 | 0.0 | 4.0 | 0.00 | 0.03 | 0.01 | 50 | 1017.3 |
| 20260502225014 | 47 | 24 | 0.0 | 2.0 | 0.00 | 0.03 | 0.01 | 48 | 1017.3 |
| 20260502224517 | 47 | 304 | 1.0 | 2.0 | 0.00 | 0.03 | 0.01 | 49 | 1017.3 |
| 20260502224005 | 47 | 340 | 0.0 | 3.0 | 0.00 | 0.03 | 0.01 | 50 | 1017.3 |
| 20260502223511 | 47 | 340 | 0.0 | 3.0 | 0.00 | 0.03 | 0.01 | 48 | 1017.2 |
| 20260502223020 | 47 | 165 | 1.0 | 4.0 | 0.00 | 0.03 | 0.01 | 46 | 1017.3 |
| 20260502222508 | 48 | 352 | 0.0 | 4.0 | 0.00 | 0.03 | 0.01 | 47 | 1017.3 |
| 20260502222012 | 48 | 352 | 0.0 | 5.0 | 0.00 | 0.03 | 0.01 | 47 | 1017.3 |
| 20260502221521 | 48 | 311 | 1.0 | 5.0 | 0.00 | 0.03 | 0.01 | 45 | 1017.2 |
| 20260502221007 | 48 | 344 | 0.0 | 10.0 | 0.00 | 0.03 | 0.01 | 47 | 1017.3 |
| 20260502220503 | 48 | 61 | 1.0 | 10.0 | 0.00 | 0.03 | 0.01 | 46 | 1017.3 |
| 20260502220009 | 48 | 53 | 0.0 | 4.0 | 0.00 | 0.03 | 0.01 | 47 | 1017.3 |
| 20260502215506 | 48 | 65 | 1.0 | 7.0 | 0.00 | 0.03 | 0.01 | 45 | 1017.2 |
| 20260502215003 | 48 | 26 | 1.0 | 7.0 | 0.00 | 0.03 | 0.01 | 47 | 1017.2 |
| 20260502214516 | 49 | 360 | 0.0 | 4.0 | 0.00 | 0.03 | 0.01 | 45 | 1017.2 |
| 20260502214006 | 49 | 22 | 0.0 | 5.0 | 0.00 | 0.03 | 0.01 | 45 | 1017.2 |
| 20260502213508 | 49 | 337 | 1.0 | 5.0 | 0.00 | 0.03 | 0.01 | 45 | 1017.1 |
| 20260502213021 | 49 | 308 | 0.0 | 4.0 | 0.00 | 0.03 | 0.01 | 47 | 1017.1 |
| 20260502212507 | 49 | 58 | 0.0 | 3.0 | 0.00 | 0.03 | 0.01 | 46 | 1017.0 |
| 20260502212013 | 49 | 26 | 0.0 | 5.0 | 0.00 | 0.03 | 0.01 | 45 | 1016.9 |
| 20260502211520 | 50 | 349 | 0.0 | 5.0 | 0.00 | 0.03 | 0.01 | 44 | 1017.0 |
| 20260502211003 | 50 | 338 | 0.0 | 5.0 | 0.00 | 0.03 | 0.01 | 46 | 1016.8 |
| 20260502210503 | 50 | 24 | 0.0 | 3.0 | 0.00 | 0.03 | 0.01 | 44 | 1016.8 |
| 20260502210017 | 50 | 313 | 0.0 | 3.0 | 0.00 | 0.03 | 0.01 | 44 | 1016.9 |
| 20260502205506 | 50 | 335 | 0.0 | 5.0 | 0.00 | 0.03 | 0.01 | 43 | 1016.9 |
| 20260502205006 | 50 | 11 | 1.0 | 5.0 | 0.00 | 0.03 | 0.01 | 44 | 1016.9 |
| 20260502204513 | 50 | 22 | 0.0 | 3.0 | 0.00 | 0.03 | 0.01 | 45 | 1016.8 |
| 20260502204003 | 50 | 12 | 0.0 | 9.0 | 0.00 | 0.03 | 0.01 | 48 | 1016.9 |
| 20260502203507 | 50 | 281 | 2.0 | 9.0 | 0.00 | 0.03 | 0.01 | 45 | 1016.8 |
| 20260502203020 | 50 | 24 | 1.0 | 6.0 | 0.00 | 0.03 | 0.01 | 44 | 1016.8 |
| 20260502202507 | 50 | 9 | 1.0 | 5.0 | 0.00 | 0.03 | 0.01 | 44 | 1016.9 |
| 20260502202007 | 50 | 213 | 1.0 | 6.0 | 0.00 | 0.03 | 0.01 | 43 | 1017.0 |
| 20260502201525 | 51 | 360 | 0.0 | 6.0 | 0.00 | 0.03 | 0.01 | 43 | 1017.0 |
| 20260502201008 | 51 | 186 | 0.0 | 6.0 | 0.00 | 0.03 | 0.01 | 44 | 1017.0 |
| 20260502200510 | 51 | 318 | 1.0 | 6.0 | 0.00 | 0.03 | 0.01 | 45 | 1017.0 |
| 20260502200022 | 50 | 26 | 1.0 | 9.0 | 0.00 | 0.03 | 0.01 | 44 | 1017.0 |
| 20260502195502 | 50 | 339 | 0.0 | 9.0 | 0.00 | 0.03 | 0.01 | 45 | 1017.1 |
| 20260502195003 | 50 | 316 | 1.0 | 6.0 | 0.00 | 0.03 | 0.01 | 44 | 1017.2 |
| 20260502194509 | 51 | 352 | 0.0 | 6.0 | 0.00 | 0.03 | 0.01 | 44 | 1017.2 |
| 20260502194002 | 51 | 346 | 1.0 | 5.0 | 0.00 | 0.03 | 0.01 | 42 | 1017.2 |
| 20260502193507 | 52 | 33 | 1.0 | 5.0 | 0.00 | 0.03 | 0.01 | 43 | 1017.1 |
| 20260502193013 | 52 | 47 | 0.0 | 4.0 | 0.00 | 0.03 | 0.01 | 46 | 1017.2 |
| 20260502192506 | 51 | 87 | 1.0 | 6.0 | 0.00 | 0.03 | 0.01 | 45 | 1017.3 |
| 20260502192012 | 50 | 360 | 0.0 | 6.0 | 0.00 | 0.03 | 0.01 | 45 | 1017.3 |
| 20260502191521 | 50 | 352 | 1.0 | 4.0 | 0.00 | 0.03 | 0.01 | 47 | 1017.4 |
| 20260502191005 | 50 | 319 | 0.0 | 3.0 | 0.00 | 0.03 | 0.01 | 47 | 1017.5 |
| 20260502190502 | 50 | 22 | 0.0 | 6.0 | 0.00 | 0.03 | 0.01 | 47 | 1017.6 |
| 20260502190004 | 50 | 296 | 1.0 | 11.0 | 0.00 | 0.03 | 0.01 | 48 | 1017.5 |
| 20260502185510 | 50 | 340 | 1.0 | 11.0 | 0.00 | 0.03 | 0.01 | 49 | 1017.5 |
| 20260502185003 | 50 | 345 | 1.0 | 13.0 | 0.00 | 0.03 | 0.01 | 48 | 1017.5 |
| 20260502184507 | 50 | 28 | 1.0 | 13.0 | 0.00 | 0.03 | 0.01 | 48 | 1017.5 |
| 20260502184005 | 50 | 352 | 2.0 | 5.0 | 0.00 | 0.03 | 0.01 | 46 | 1017.5 |
| 20260502183504 | 51 | 306 | 1.0 | 5.0 | 0.00 | 0.03 | 0.01 | 45 | 1017.6 |
| 20260502183012 | 51 | 115 | 0.0 | 6.0 | 0.00 | 0.03 | 0.01 | 45 | 1017.4 |
| 20260502182508 | 51 | 61 | 1.0 | 6.0 | 0.00 | 0.03 | 0.01 | 45 | 1017.6 |
| 20260502182002 | 51 | 234 | 1.0 | 4.0 | 0.00 | 0.03 | 0.01 | 46 | 1017.4 |
| 20260502181502 | 51 | 308 | 0.0 | 7.0 | 0.00 | 0.03 | 0.01 | 47 | 1017.5 |
| 20260502181005 | 51 | 352 | 2.0 | 7.0 | 0.00 | 0.03 | 0.01 | 46 | 1017.6 |
| 20260502180503 | 50 | 82 | 0.0 | 6.0 | 0.00 | 0.03 | 0.01 | 49 | 1017.6 |
| 20260502170505 | 48 | 153 | 0.0 | 6.0 | 0.00 | 0.03 | 0.01 | 51 | 1017.8 |
| 20260502164003 | 48 | 229 | 1.0 | 6.0 | 0.00 | 0.03 | 0.01 | 50 | 1017.9 |
| 20260502163503 | 49 | 273 | 1.0 | 6.0 | 0.00 | 0.03 | 0.01 | 49 | 1018.0 |
| 20260502163004 | 49 | 347 | 1.0 | 5.0 | 0.00 | 0.03 | 0.01 | 47 | 1017.9 |
| 20260502162507 | 50 | 5 | 1.0 | 5.0 | 0.00 | 0.03 | 0.01 | 49 | 1018.1 |
| 20260502162006 | 49 | 5 | 1.0 | 4.0 | 0.00 | 0.03 | 0.01 | 50 | 1018.1 |
| 20260502161510 | 50 | 227 | 0.0 | 4.0 | 0.00 | 0.03 | 0.01 | 50 | 1018.1 |
| 20260502161006 | 51 | 89 | 0.0 | 7.0 | 0.00 | 0.03 | 0.01 | 50 | 1018.1 |
| 20260502160509 | 51 | 335 | 2.0 | 7.0 | 0.00 | 0.03 | 0.01 | 51 | 1018.0 |
| 20260502152004 | 48 | 45 | 0.0 | 5.0 | 0.00 | 0.05 | 0.01 | 56 | 1018.0 |
| 20260502151509 | 49 | 224 | 1.0 | 10.0 | 0.00 | 0.05 | 0.01 | 54 | 1018.0 |
| 20260502151003 | 49 | 15 | 1.0 | 10.0 | 0.00 | 0.06 | 0.01 | 57 | 1018.0 |
| 20260502150503 | 48 | 5 | 0.0 | 4.0 | 0.00 | 0.07 | 0.01 | 60 | 1018.1 |
| 20260502130503 | 39 | 275 | 1.0 | 5.0 | 0.00 | 0.10 | 0.01 | 79 | 1017.7 |
| 20260502123508 | 36 | 9 | 0.0 | 3.0 | 0.00 | 0.11 | 0.01 | 84 | 1017.6 |
| 20260502123018 | 36 | 184 | 0.0 | 3.0 | 0.00 | 0.11 | 0.01 | 86 | 1017.6 |
| 20260502122505 | 36 | 9 | 0.0 | 2.0 | 0.00 | 0.11 | 0.01 | 88 | 1017.5 |
| 20260502122010 | 35 | 337 | 0.0 | 2.0 | 0.00 | 0.11 | 0.01 | 89 | 1017.4 |
| 20260502121526 | 35 | 271 | 0.0 | 2.0 | 0.00 | 0.11 | 0.01 | 90 | 1017.5 |
| 20260502121010 | 35 | 49 | 0.0 | 2.0 | 0.00 | 0.11 | 0.01 | 92 | 1017.5 |
| 20260502120507 | 35 | 11 | 0.0 | 2.0 | 0.00 | 0.11 | 0.01 | 93 | 1017.4 |
| 20260502115508 | 34 | 79 | 0.0 | 1.0 | 0.00 | 0.11 | 0.01 | 94 | 1017.3 |
| 20260502115013 | 33 | 303 | 0.0 | 2.0 | 0.00 | 0.11 | 0.01 | 94 | 1017.4 |
| 20260502114513 | 33 | 231 | 0.0 | 2.0 | 0.00 | 0.11 | 0.01 | 95 | 1017.4 |
| 20260502114006 | 33 | 41 | 0.0 | 0.0 | 0.00 | 0.11 | 0.01 | 95 | 1017.3 |
| 20260502113505 | 32 | 41 | 0.0 | 0.0 | 0.00 | 0.11 | 0.01 | 95 | 1017.3 |
| 20260502113016 | 32 | 41 | 0.0 | 0.0 | 0.00 | 0.11 | 0.01 | 94 | 1017.3 |
| 20260502112505 | 32 | 38 | 0.0 | 1.0 | 0.00 | 0.11 | 0.01 | 94 | 1017.3 |
| 20260502112009 | 32 | 38 | 0.0 | 1.0 | 0.00 | 0.11 | 0.01 | 94 | 1017.3 |
| 20260502111519 | 31 | 38 | 0.0 | 1.0 | 0.00 | 0.11 | 0.01 | 94 | 1017.1 |
| 20260502111005 | 31 | 38 | 0.0 | 0.0 | 0.00 | 0.11 | 0.01 | 94 | 1017.1 |
| 20260502110510 | 31 | 38 | 0.0 | 0.0 | 0.00 | 0.11 | 0.01 | 94 | 1017.1 |
| 20260502110025 | 31 | 38 | 0.0 | 0.0 | 0.00 | 0.11 | 0.01 | 94 | 1017.2 |
| 20260502105512 | 31 | 38 | 0.0 | 0.0 | 0.00 | 0.11 | 0.01 | 94 | 1017.2 |
| 20260502105012 | 31 | 38 | 0.0 | 0.0 | 0.00 | 0.11 | 0.01 | 94 | 1017.0 |
| 20260502104534 | 31 | 38 | 0.0 | 0.0 | 0.00 | 0.11 | 0.01 | 93 | 1017.0 |
| 20260502104009 | 31 | 38 | 0.0 | 0.0 | 0.00 | 0.11 | 0.01 | 93 | 1017.0 |
| 20260502103510 | 31 | 38 | 0.0 | 0.0 | 0.00 | 0.11 | 0.01 | 93 | 1017.0 |
| 20260502103012 | 32 | 38 | 0.0 | 0.0 | 0.00 | 0.11 | 0.01 | 93 | 1017.0 |
| 20260502102507 | 32 | 38 | 0.0 | 0.0 | 0.00 | 0.11 | 0.01 | 94 | 1017.0 |
| 20260502102008 | 32 | 38 | 0.0 | 0.0 | 0.00 | 0.11 | 0.01 | 94 | 1017.0 |
| 20260502101516 | 32 | 38 | 0.0 | 0.0 | 0.00 | 0.11 | 0.01 | 94 | 1017.1 |
| 20260502101004 | 32 | 38 | 0.0 | 0.0 | 0.00 | 0.11 | 0.01 | 94 | 1017.0 |
| 20260502100502 | 32 | 38 | 0.0 | 0.0 | 0.00 | 0.11 | 0.01 | 94 | 1016.9 |
| 20260502091511 | 32 | 38 | 0.0 | 0.0 | 0.00 | 0.11 | 0.01 | 94 | 1017.1 |
| 20260502091006 | 32 | 38 | 0.0 | 0.0 | 0.00 | 0.11 | 0.01 | 94 | 1017.1 |
| 20260502090506 | 32 | 38 | 0.0 | 0.0 | 0.00 | 0.11 | 0.01 | 94 | 1017.0 |
| 20260502071507 | 34 | 38 | 0.0 | 0.0 | 0.01 | 0.11 | 0.01 | 93 | 1016.7 |
| 20260502071004 | 34 | 38 | 0.0 | 0.0 | 0.01 | 0.11 | 0.01 | 93 | 1016.8 |
| 20260502070504 | 35 | 38 | 0.0 | 0.0 | 0.01 | 0.11 | 0.01 | 93 | 1016.9 |
| 20260502070012 | 35 | 38 | 0.0 | 0.0 | 0.01 | 0.11 | 0.01 | 93 | 1017.0 |
| 20260502065505 | 35 | 38 | 0.0 | 0.0 | 0.01 | 0.11 | 0.01 | 93 | 1017.0 |
| 20260502065009 | 35 | 38 | 0.0 | 0.0 | 0.01 | 0.11 | 0.01 | 93 | 1017.0 |
| 20260502064517 | 35 | 38 | 0.0 | 0.0 | 0.01 | 0.11 | 0.01 | 93 | 1017.1 |
| 20260502064007 | 35 | 38 | 0.0 | 0.0 | 0.01 | 0.11 | 0.01 | 93 | 1017.1 |
| 20260502063507 | 35 | 38 | 0.0 | 0.0 | 0.01 | 0.11 | 0.01 | 93 | 1017.1 |
| 20260502063025 | 35 | 38 | 0.0 | 0.0 | 0.00 | 0.10 | 0.00 | 93 | 1017.0 |
| 20260502062511 | 35 | 38 | 0.0 | 0.0 | 0.00 | 0.10 | 0.00 | 93 | 1017.0 |
| 20260502062013 | 36 | 38 | 0.0 | 0.0 | 0.00 | 0.10 | 0.00 | 93 | 1017.1 |
| 20260502061505 | 36 | 38 | 0.0 | 0.0 | 0.00 | 0.10 | 0.00 | 93 | 1017.0 |
| 20260502061004 | 36 | 38 | 0.0 | 0.0 | 0.00 | 0.10 | 0.00 | 93 | 1017.1 |
| 20260502060503 | 36 | 38 | 0.0 | 0.0 | 0.00 | 0.10 | 0.00 | 93 | 1017.1 |
| 20260502060006 | 36 | 38 | 0.0 | 0.0 | 0.00 | 0.10 | 0.00 | 93 | 1017.1 |
| 20260502055504 | 36 | 38 | 0.0 | 0.0 | 0.00 | 0.10 | 0.00 | 93 | 1017.1 |
| 20260502055006 | 36 | 38 | 0.0 | 0.0 | 0.00 | 0.10 | 0.00 | 93 | 1017.1 |
| 20260502054512 | 36 | 38 | 0.0 | 0.0 | 0.00 | 0.10 | 0.00 | 93 | 1017.1 |
| 20260502054006 | 36 | 38 | 0.0 | 0.0 | 0.00 | 0.10 | 0.00 | 93 | 1017.2 |
| 20260502053507 | 36 | 38 | 0.0 | 0.0 | 0.00 | 0.10 | 0.00 | 93 | 1017.3 |
| 20260502053019 | 36 | 38 | 0.0 | 1.0 | 0.00 | 0.10 | 0.00 | 93 | 1017.4 |
| 20260502052513 | 36 | 38 | 0.0 | 1.0 | 0.00 | 0.10 | 0.00 | 93 | 1017.4 |
| 20260502052007 | 36 | 38 | 0.0 | 0.0 | 0.00 | 0.10 | 0.00 | 93 | 1017.3 |
| 20260502051527 | 36 | 38 | 0.0 | 0.0 | 0.00 | 0.10 | 0.00 | 93 | 1017.3 |
| 20260502051007 | 37 | 38 | 0.0 | 0.0 | 0.00 | 0.10 | 0.00 | 93 | 1017.4 |
| 20260502050507 | 37 | 38 | 0.0 | 0.0 | 0.00 | 0.10 | 0.00 | 93 | 1017.3 |
| 20260502050025 | 37 | 38 | 0.0 | 0.0 | 0.00 | 0.10 | 0.00 | 93 | 1017.3 |
| 20260502045504 | 37 | 38 | 0.0 | 0.0 | 0.00 | 0.10 | 0.00 | 92 | 1017.3 |
| 20260502045005 | 37 | 38 | 0.0 | 0.0 | 0.00 | 0.10 | 0.00 | 92 | 1017.3 |
| 20260502044510 | 37 | 38 | 0.0 | 0.0 | 0.00 | 0.10 | 0.00 | 93 | 1017.2 |
| 20260502044007 | 37 | 38 | 0.0 | 0.0 | 0.00 | 0.10 | 0.00 | 92 | 1017.2 |
| 20260502043506 | 37 | 38 | 0.0 | 0.0 | 0.00 | 0.10 | 0.00 | 92 | 1017.2 |
| 20260502043017 | 37 | 38 | 0.0 | 1.0 | 0.00 | 0.10 | 0.00 | 92 | 1017.2 |
| 20260502042507 | 38 | 38 | 0.0 | 1.0 | 0.00 | 0.10 | 0.00 | 92 | 1017.2 |
| 20260502042011 | 37 | 38 | 0.0 | 0.0 | 0.00 | 0.10 | 0.00 | 92 | 1017.3 |
| 20260502041522 | 38 | 38 | 0.0 | 0.0 | 0.00 | 0.10 | 0.00 | 92 | 1017.3 |
| 20260502041007 | 38 | 38 | 0.0 | 0.0 | 0.00 | 0.10 | 0.00 | 92 | 1017.3 |
| 20260502040509 | 38 | 38 | 0.0 | 1.0 | 0.00 | 0.10 | 0.00 | 92 | 1017.2 |
| 20260502040034 | 38 | 38 | 0.0 | 1.0 | 0.00 | 0.10 | 0.00 | 92 | 1017.2 |
| 20260502035509 | 38 | 38 | 0.0 | 1.0 | 0.00 | 0.10 | 0.10 | 92 | 1017.1 |
| 20260502035014 | 38 | 39 | 0.0 | 1.0 | 0.00 | 0.10 | 0.10 | 92 | 1017.0 |
| 20260502034528 | 38 | 39 | 0.0 | 0.0 | 0.00 | 0.10 | 0.10 | 91 | 1017.1 |
| 20260502034008 | 38 | 39 | 0.0 | 0.0 | 0.00 | 0.10 | 0.10 | 91 | 1017.1 |
| 20260502033502 | 38 | 39 | 0.0 | 0.0 | 0.00 | 0.10 | 0.10 | 91 | 1017.1 |
| 20260502033011 | 38 | 39 | 0.0 | 0.0 | 0.00 | 0.10 | 0.10 | 91 | 1017.1 |
| 20260502032504 | 39 | 39 | 0.0 | 1.0 | 0.00 | 0.10 | 0.10 | 91 | 1017.1 |
| 20260502032010 | 39 | 39 | 0.0 | 1.0 | 0.00 | 0.10 | 0.10 | 91 | 1017.1 |
| 20260502031517 | 39 | 39 | 0.0 | 1.0 | 0.00 | 0.10 | 0.10 | 91 | 1017.3 |
| 20260502031006 | 39 | 39 | 0.0 | 1.0 | 0.00 | 0.10 | 0.10 | 91 | 1017.2 |
| 20260502030510 | 39 | 39 | 0.0 | 1.0 | 0.00 | 0.10 | 0.10 | 91 | 1017.3 |
| 20260502030021 | 39 | 39 | 0.0 | 1.0 | 0.00 | 0.10 | 0.10 | 91 | 1017.3 |
| 20260502025511 | 39 | 39 | 0.0 | 1.0 | 0.00 | 0.10 | 0.10 | 90 | 1017.4 |
| 20260502025008 | 39 | 46 | 0.0 | 0.0 | 0.00 | 0.10 | 0.10 | 90 | 1017.2 |
| 20260502024537 | 39 | 46 | 0.0 | 1.0 | 0.00 | 0.10 | 0.10 | 90 | 1017.3 |
| 20260502024010 | 40 | 46 | 0.0 | 1.0 | 0.00 | 0.10 | 0.10 | 89 | 1017.4 |
| 20260502023510 | 40 | 46 | 0.0 | 1.0 | 0.00 | 0.10 | 0.10 | 90 | 1017.3 |
| 20260502023031 | 40 | 46 | 0.0 | 2.0 | 0.00 | 0.10 | 0.10 | 89 | 1017.3 |
| 20260502022511 | 40 | 55 | 0.0 | 2.0 | 0.00 | 0.10 | 0.10 | 89 | 1017.2 |
| 20260502022010 | 40 | 40 | 0.0 | 1.0 | 0.00 | 0.10 | 0.10 | 88 | 1017.1 |
| 20260502021512 | 40 | 40 | 0.0 | 1.0 | 0.00 | 0.10 | 0.10 | 88 | 1017.0 |
| 20260502021004 | 41 | 40 | 0.0 | 1.0 | 0.00 | 0.10 | 0.10 | 87 | 1017.0 |
| 20260502020506 | 41 | 40 | 0.0 | 1.0 | 0.00 | 0.10 | 0.10 | 86 | 1016.8 |
| 20260502020020 | 41 | 40 | 0.0 | 0.0 | 0.01 | 0.10 | 0.10 | 86 | 1016.8 |
| 20260502015510 | 41 | 40 | 0.0 | 0.0 | 0.02 | 0.10 | 0.10 | 85 | 1016.7 |
| 20260502015010 | 42 | 40 | 0.0 | 0.0 | 0.02 | 0.10 | 0.10 | 85 | 1016.7 |
| 20260502014532 | 42 | 40 | 0.0 | 0.0 | 0.02 | 0.10 | 0.10 | 84 | 1016.7 |
| 20260502014009 | 42 | 40 | 0.0 | 0.0 | 0.02 | 0.10 | 0.10 | 84 | 1016.5 |
| 20260502013508 | 43 | 40 | 0.0 | 3.0 | 0.02 | 0.10 | 0.10 | 84 | 1016.4 |
| 20260502013025 | 43 | 40 | 0.0 | 3.0 | 0.02 | 0.10 | 0.10 | 83 | 1016.4 |
| 20260502012507 | 43 | 49 | 0.0 | 3.0 | 0.02 | 0.10 | 0.10 | 82 | 1016.2 |
| 20260502012018 | 44 | 36 | 0.0 | 8.0 | 0.02 | 0.10 | 0.10 | 81 | 1016.1 |
| 20260502011528 | 44 | 67 | 1.0 | 8.0 | 0.02 | 0.10 | 0.10 | 80 | 1016.0 |
| 20260502011010 | 45 | 45 | 1.0 | 6.0 | 0.02 | 0.10 | 0.10 | 80 | 1016.0 |
| 20260502010502 | 45 | 352 | 0.0 | 6.0 | 0.02 | 0.10 | 0.10 | 78 | 1016.1 |
| 20260502010004 | 46 | 279 | 1.0 | 6.0 | 0.01 | 0.09 | 0.09 | 77 | 1016.0 |
| 20260502005502 | 46 | 18 | 0.0 | 1.0 | 0.00 | 0.08 | 0.08 | 77 | 1015.7 |
| 20260502005002 | 46 | 18 | 0.0 | 1.0 | 0.00 | 0.08 | 0.08 | 77 | 1015.5 |
| 20260502004503 | 46 | 18 | 0.0 | 1.0 | 0.00 | 0.08 | 0.08 | 75 | 1015.6 |
| 20260502004015 | 46 | 10 | 0.0 | 1.0 | 0.00 | 0.08 | 0.08 | 75 | 1015.5 |
| 20260502003503 | 46 | 10 | 0.0 | 1.0 | 0.00 | 0.08 | 0.08 | 75 | 1015.5 |
| 20260502003004 | 47 | 10 | 0.0 | 2.0 | 0.00 | 0.08 | 0.08 | 74 | 1015.5 |
| 20260502002502 | 47 | 10 | 0.0 | 2.0 | 0.00 | 0.08 | 0.08 | 74 | 1015.6 |
| 20260502002007 | 47 | 14 | 0.0 | 2.0 | 0.00 | 0.08 | 0.08 | 73 | 1015.5 |
| 20260502001509 | 47 | 38 | 0.0 | 1.0 | 0.00 | 0.08 | 0.08 | 73 | 1015.6 |
| 20260502001005 | 47 | 38 | 0.0 | 1.0 | 0.00 | 0.08 | 0.08 | 73 | 1015.6 |
| 20260502000505 | 47 | 38 | 0.0 | 1.0 | 0.00 | 0.08 | 0.08 | 73 | 1015.5 |
| 20260502000013 | 47 | 38 | 0.0 | 1.0 | 0.00 | 0.08 | 0.08 | 73 | 1015.4 |
| 20260501235511 | 48 | 37 | 0.0 | 1.0 | 0.00 | 0.08 | 0.08 | 71 | 1015.2 |
| 20260501235002 | 48 | 37 | 0.0 | 2.0 | 0.00 | 0.08 | 0.08 | 72 | 1015.1 |
| 20260501234504 | 48 | 37 | 0.0 | 2.0 | 0.00 | 0.08 | 0.08 | 71 | 1015.1 |
| 20260501234002 | 48 | 32 | 0.0 | 2.0 | 0.00 | 0.08 | 0.08 | 72 | 1015.0 |